Content
SEND FEEDBACK

Daily
Averages
Monthly
Summary
United States of America

RALEIGH, NORTH CAROLINA


Home > North America > United States > North Carolina
Elevation: 114 meters     Latitude: 35 52N     Longitude: 078 47W

WEATHER
 
SELECT A DAY
Number of Records: 193,013;   Date Range: 1/1/95 - 8/30/14
 
SHARE

PRINT THIS DATA

[ ← Previous Day ]
WEATHER ALMANAC - 28 FEBRUARY, 2013
[ Next Day → ]
[ °F ]   °C
Weather ElementAverageHighLow
Temperature5.4 °C8.9 °C (3:51 pm)0.6 °C (11:51 pm)
Dewpoint-1.7 °C2.2 °C (1:51 am)-5 °C (3:51 pm)
Humidity62.7 %93 % (5:51 am)37 % (3:51 pm)
Barometer1008.1 hPa1011.2 hPa (9:51 pm)1005.8 hPa (3:51 am)
Wind Speed7.1 km/h16.7 km/h (12:51 pm)
Wind Gust31.5 km/h (3:51 pm)
Weather ElementAverage
Visibility16.1 km
Wind DirectionSSE (166.4 °)

Weather ElementTotal
Precipitation---
Heating Degree Days13.6 (Base 18.3)
Averaged from 22 records on 28 February, 2013
WEATHER CONDITIONS BREAKOUT
WIND DIRECTION BREAKOUT
WEATHER BY HOUR - 28 FEBRUARY, 2013
[ °F ]   °C
Local TimeTemperatureDewpointHumidityBarometerVisibilityWind DirectionWind SpeedGust SpeedPrecipitationEventsConditions
1:51 AM4.4 °C2.2 °C86 %1006.8 hPa16.1 kmCalmScattered Clouds
3:51 AM3.3 °C1.7 °C89 %1005.8 hPa16.1 kmSW (230°)5.6 km/hPartly Cloudy
4:51 AM2.8 °C1.1 °C89 %1006.4 hPa16.1 kmCalmPartly Cloudy
5:51 AM2.2 °C1.1 °C93 %1007.1 hPa16.1 kmCalmMostly Cloudy
6:51 AM3.9 °C1.7 °C86 %1007.5 hPa16.1 kmWest (270°)5.6 km/hMostly Cloudy
7:51 AM5 °C1.1 °C76 %1007.8 hPa16.1 kmCalmMostly Cloudy
8:51 AM6 °C1 °C70 %1008.1 hPa16.1 kmCalmMostly Cloudy
9:51 AM6 °C0 °C66 %1008.1 hPa16.1 kmWest (270°)7.4 km/hMostly Cloudy
10:51 AM7.2 °C-1.1 °C56 %1008.1 hPa16.1 kmVariable7.4 km/hMostly Cloudy
11:51 AM8.3 °C-1.7 °C50 %1008.1 hPa16.1 kmWNW (300°)14.8 km/hOvercast
12:51 PM8.3 °C-2.8 °C46 %1007.5 hPa16.1 kmWest (270°)16.7 km/hMostly Cloudy
1:51 PM8.3 °C-2.8 °C46 %1007.1 hPa16.1 kmVariable11.1 km/h27.8 km/hMostly Cloudy
2:51 PM8.3 °C-3.3 °C44 %1007.1 hPa16.1 kmWest (270°)13 km/hMostly Cloudy
3:51 PM8.9 °C-5 °C37 %1007.5 hPa16.1 kmWest (270°)16.7 km/h31.5 km/hMostly Cloudy
4:51 PM8.3 °C-4.4 °C41 %1008.1 hPa16.1 kmWNW (300°)16.7 km/hMostly Cloudy
5:51 PM7.8 °C-3.9 °C44 %1008.5 hPa16.1 kmVariable9.3 km/hMostly Cloudy
6:51 PM5.6 °C-3.9 °C51 %1009.1 hPa16.1 kmWest (270°)5.6 km/hPartly Cloudy
7:51 PM5 °C-3.9 °C53 %1009.8 hPa16.1 kmWest (280°)7.4 km/hPartly Cloudy
8:51 PM4.4 °C-3.9 °C55 %1010.2 hPa16.1 kmWest (280°)5.6 km/hPartly Cloudy
9:51 PM2.8 °C-3.9 °C62 %1011.2 hPa16.1 kmCalmPartly Cloudy
10:51 PM2.2 °C-3.9 °C64 %1010.8 hPa16.1 kmNW (320°)5.6 km/hPartly Cloudy
11:51 PM0.6 °C-3.3 °C75 %1011.2 hPa16.1 kmNNW (330°)5.6 km/hPartly Cloudy
Hourly data recorded from KRDU, located 0 kilometers away from Raleigh, North Carolina







STORIES FROM OUR PARTNERS